GSAT0217 (PRN E27)

Last updated on Nov. 21, 2019, 4:16 a.m. UTC

1 43057U 17079C   19324.63974114 -.00000023  00000-0  00000+0 0  9992
2 43057  56.4362 287.5515 0005066 280.2871  79.6422  1.70473557 12063
UTC
Height (km)
Latitude
Longitude
Inclination
Orbital Period
UTC large
Height (km)
Speed (km/s)
/
Latitude / Longitude
Inclination (degrees)
Orbital Period (minutes)
Azimuth
Elevation
Range (km)
Doppler Factor
iOS Compass Heading
iOS Angle

Next 30 passes for location: Hong Kong

Rise time Rise Azimuth (degrees) Set time Set Azimuth (degrees) Duration Max altitude (degrees)

No matching passes for this satellites